EW9240 Weather Reports


Display with metric or nautical units.
time (UTC)temp
F
wind
direction
speed
MPH
gust
MPH
rain 1hr
in
rain 24hr
in
rain mn
in
humidity
%
barometer
mb
20260902234600 59 183 1.0 5.0 0.02 0.35 0.35 92 1005.4
20260902233032 59 202 3.0 6.0 0.00 0.33 0.33 90 1005.1
20260902231519 59 211 1.0 5.0 0.00 0.33 0.33 89 1005.1
20260902230053 60 229 0.0 5.0 0.00 0.33 0.33 88 1004.9
20260902224539 60 213 0.0 3.0 0.00 0.33 0.33 89 1004.9
20260902223015 59 108 1.0 5.0 0.01 0.33 0.33 90 1004.9
20260902221559 59 122 1.0 5.0 0.02 0.33 0.33 90 1004.9
20260902220053 59 124 0.0 3.0 0.02 0.33 0.33 91 1004.7
20260902214537 59 137 0.0 3.0 0.03 0.33 0.33 92 1004.9
20260902213028 59 110 0.0 1.0 0.04 0.32 0.32 93 1004.9
20260902211548 59 70 0.0 2.0 0.09 0.31 0.31 92 1004.8
20260902210029 59 129 0.0 2.0 0.15 0.31 0.31 92 1004.9
20260902204501 59 127 0.0 2.0 0.20 0.30 0.30 91 1004.6
20260902203059 59 126 0.0 1.0 0.20 0.28 0.28 92 1004.5
20260902201533 59 78 0.0 2.0 0.16 0.22 0.22 91 1004.4
20260902200016 59 129 0.0 2.0 0.10 0.15 0.15 90 1004.7
20260902194557 59 137 0.0 3.0 0.07 0.11 0.11 90 1004.7
20260902193042 59 133 0.0 1.0 0.05 0.08 0.08 89 1004.8
20260902191538 60 129 0.0 3.0 0.05 0.06 0.06 88 1004.9
20260902190016 60 127 0.0 2.0 0.05 0.05 0.05 86 1005.0
20260902184600 60 134 0.0 0.0 0.04 0.04 0.04 86 1005.3
20260902183028 60 159 0.0 0.0 0.03 0.03 0.03 84 1005.5
20260902181513 62 215 0.0 1.0 0.01 0.01 0.01 82 1005.6
20260902180051 63 172 0.0 0.0 0.00 0.00 0.00 81 1005.4
20260902174534 64 141 0.0 0.0 0.00 0.00 0.00 79 1005.1
20260902173020 64 141 0.0 0.0 0.00 0.00 0.00 77 1004.9
20260902171538 64 51 0.0 2.0 0.00 0.00 0.00 74 1004.8
20260902170019 64 136 0.0 2.0 0.00 0.00 0.00 72 1004.8
20260902164550 64 133 0.0 3.0 0.00 0.00 0.00 72 1004.7
20260902163041 64 141 0.0 3.0 0.00 0.00 0.00 73 1004.7
20260902161513 63 136 0.0 2.0 0.00 0.00 0.00 73 1004.8
20260902154541 62 130 0.0 2.0 0.00 0.00 0.00 74 1005.0
20260902153027 62 151 0.0 3.0 0.00 0.00 0.00 75 1005.2
20260902151557 62 127 0.0 2.0 0.00 0.00 0.00 75 1005.3
20260902150027 61 129 0.0 3.0 0.00 0.00 0.00 75 1005.4
20260902144605 61 129 0.0 1.0 0.00 0.00 0.00 76 1005.6
20260902143050 61 134 0.0 2.0 0.00 0.00 0.00 76 1005.8
20260902141525 61 135 0.0 1.0 0.00 0.00 0.00 77 1006.0
20260902140009 60 138 0.0 0.0 0.00 0.00 0.00 77 1006.2
20260902134600 60 53 0.0 2.0 0.00 0.00 0.00 77 1006.4
20260902133034 61 54 0.0 2.0 0.00 0.00 0.00 76 1006.5
20260902131517 61 128 0.0 0.0 0.00 0.00 0.00 74 1006.7
20260902130056 61 140 0.0 2.0 0.00 0.00 0.00 75 1006.8
20260902124545 61 135 0.0 0.0 0.00 0.00 0.00 76 1007.1
20260902123024 61 135 0.0 0.0 0.00 0.00 0.00 76 1007.3
20260902121601 61 138 0.0 1.0 0.00 0.00 0.00 76 1007.5
20260902120007 60 129 0.0 1.0 0.00 0.00 0.00 77 1007.6
20260902114552 60 133 0.0 3.0 0.00 0.00 0.00 78 1007.8
20260902113013 60 130 0.0 2.0 0.00 0.00 0.00 78 1007.9
20260902111534 60 146 0.0 1.0 0.00 0.00 0.00 78 1008.1
20260902110107 60 132 0.0 1.0 0.00 0.00 0.00 78 1008.1
20260902104551 60 122 0.0 3.0 0.00 0.00 0.00 77 1008.3
20260902103032 61 124 0.0 2.0 0.00 0.00 0.00 77 1008.4
20260902101518 61 126 0.0 2.0 0.00 0.00 0.00 77 1008.4
20260902100110 61 124 1.0 3.0 0.00 0.00 0.00 77 1008.5
20260902094538 60 207 0.0 1.0 0.00 0.00 0.00 77 1008.7
20260902093022 61 219 0.0 2.0 0.00 0.00 0.00 77 1008.9
20260902091505 61 212 0.0 2.0 0.00 0.00 0.00 78 1009.0
20260902090057 61 222 0.0 2.0 0.00 0.00 0.00 77 1009.0
20260902084537 61 205 0.0 2.0 0.00 0.00 0.00 78 1009.1
20260902083022 61 207 0.0 4.0 0.00 0.00 0.00 78 1009.1
20260902081510 61 214 0.0 0.0 0.00 0.00 0.00 78 1009.0
20260902080054 62 165 0.0 0.0 0.00 0.00 0.00 78 1009.0
20260902074540 62 120 0.0 1.0 0.00 0.00 0.00 77 1009.1
20260902073012 62 125 0.0 0.0 0.00 0.00 0.00 77 1009.2
20260902071558 62 125 0.0 1.0 0.00 0.00 0.00 76 1009.3
20260902070043 62 133 0.0 2.0 0.00 0.00 0.00 76 1009.4
20260902064520 62 122 0.0 2.0 0.00 0.00 0.00 76 1009.7
20260902063006 62 144 0.0 3.0 0.00 0.00 0.00 75 1009.7
20260902061542 62 131 0.0 3.0 0.00 0.00 0.00 75 1009.6
20260902060016 63 216 0.0 3.0 0.00 0.00 0.00 75 1009.7
20260902054501 63 218 0.0 3.0 0.00 0.00 0.00 74 1009.8
20260902053038 63 139 0.0 3.0 0.00 0.00 0.00 74 1010.0
20260902051524 63 234 1.0 4.0 0.00 0.00 0.00 74 1009.9
20260902050019 63 213 0.0 3.0 0.00 0.00 0.00 74 1009.9
20260902044554 63 219 0.0 2.0 0.00 0.00 0.00 74 1009.7
20260902043045 64 206 1.0 3.0 0.00 0.00 0.00 74 1009.8
20260902041515 64 213 1.0 5.0 0.00 0.00 0.00 73 1009.6
20260902040002 64 220 2.0 6.0 0.00 0.00 0.00 73 1009.6
20260902034601 64 207 0.0 5.0 0.00 0.00 0.00 72 1009.4
20260902033035 64 220 0.0 5.0 0.00 0.00 0.00 72 1009.2
20260902031523 65 179 1.0 5.0 0.00 0.00 0.00 71 1009.2
20260902030004 65 164 1.0 5.0 0.00 0.00 0.00 70 1009.3
20260902024600 66 217 1.0 7.0 0.00 0.00 0.00 69 1009.2
20260902023034 66 212 1.0 5.0 0.00 0.00 0.00 69 1009.1
20260902021514 66 212 1.0 5.0 0.00 0.00 0.00 68 1009.0
20260902020005 67 212 1.0 5.0 0.00 0.00 0.00 67 1009.0
20260902014546 67 229 0.0 3.0 0.00 0.00 0.00 65 1008.9
20260902013038 67 197 0.0 8.0 0.00 0.00 0.00 65 1008.9
20260902011508 68 203 2.0 4.0 0.00 0.00 0.00 65 1008.9
20260902010056 68 215 0.0 1.0 0.00 0.00 0.00 64 1008.8
20260902004541 69 209 0.0 2.0 0.00 0.00 0.00 65 1008.6
20260902003021 69 221 0.0 2.0 0.00 0.00 0.00 64 1008.5
20260902001525 69 176 0.0 1.0 0.00 0.00 0.00 65 1008.5
20260902000039 69 295 0.0 3.0 0.00 0.00 0.00 64 1008.4